User: anonymous   Login
Location: Unspecified
(0.0000°N, 0.0000°E)
Time: 15:26:41
(UTC+02:00)
Language:

Cosmos 1898 Rocket - Orbit

View from above orbital plane
View from above orbital plane
View from above satellite
View from above satellite

Ground track
Ground track

The orbit data is extracted from the following two-line orbital elements,

1 18586U 87098B   15209.21390050  .00000040  00000-0  22749-4 0  9999
2 18586 074.0076 125.7293 0021259 342.4522 169.9583 14.36638604448271
Epoch (UTC): 28 July 2015 05:08:01
Eccentricity: 0.0021259
inclination: 74.0076°
perigee height: 754 km
apogee height: 785 km
right ascension of ascending node: 125.7293°
argument of perigee: 342.4522°
revolutions per day: 14.36638604
mean anomaly at epoch: 169.9583°
orbit number at epoch: 44827

The dashed part of the orbit path shows where the satellite is in the earth's shadow,  

DLR